Time,TemperatureF,DewpointF,PressureIn,WindDirection,WindDirectionDegrees,WindSpeedMPH,WindSpeedGustMPH,Humidity,HourlyPrecipIn,Conditions,Clouds,dailyrainin,SoftwareType,DateUTC
2013-07-22 00:00:00,67.2,65.4,29.95,WSW,239,0.0,0.0,94,0.00,,,0.02,VWS V14.01,2013-07-22 04:00:00,
2013-07-22 00:01:00,67.2,65.4,29.95,WSW,239,0.0,0.0,94,0.00,,,0.00,VWS V14.01,2013-07-22 04:01:00,
2013-07-22 00:03:00,67.2,65.4,29.95,WSW,239,0.0,0.0,94,0.00,,,0.00,VWS V14.01,2013-07-22 04:03:00,
2013-07-22 00:08:00,67.0,65.2,29.95,WSW,239,0.0,0.0,94,0.00,,,0.00,VWS V14.01,2013-07-22 04:08:00,
2013-07-22 00:13:00,66.8,65.0,29.95,WSW,239,0.0,0.0,94,0.00,,,0.00,VWS V14.01,2013-07-22 04:13:00,
2013-07-22 00:18:00,66.7,65.2,29.95,WSW,239,0.0,0.0,95,0.00,,,0.00,VWS V14.01,2013-07-22 04:18:00,
2013-07-22 00:23:00,66.6,64.8,29.94,WSW,239,0.0,0.0,94,0.00,,,0.00,VWS V14.01,2013-07-22 04:23:00,
2013-07-22 00:28:00,66.5,64.7,29.94,WSW,239,0.0,0.0,94,0.00,,,0.00,VWS V14.01,2013-07-22 04:28:00,
2013-07-22 00:34:00,66.4,64.9,29.95,WSW,239,0.0,0.0,95,0.00,,,0.00,VWS V14.01,2013-07-22 04:34:00,
2013-07-22 00:39:00,66.3,64.8,29.95,WSW,239,0.0,0.0,95,0.00,,,0.00,VWS V14.01,2013-07-22 04:39:00,
2013-07-22 00:44:00,66.2,64.7,29.94,WSW,239,0.0,0.0,95,0.00,,,0.00,VWS V14.01,2013-07-22 04:44:00,
2013-07-22 00:49:00,66.1,64.6,29.94,WSW,239,0.0,0.0,95,0.00,,,0.00,VWS V14.01,2013-07-22 04:49:00,
2013-07-22 00:54:00,66.0,64.2,29.94,WSW,239,0.0,0.0,94,0.00,,,0.00,VWS V14.01,2013-07-22 04:54:00,
2013-07-22 00:59:00,65.9,64.1,29.94,WSW,239,0.0,0.0,94,0.00,,,0.00,VWS V14.01,2013-07-22 04:59:00,
2013-07-22 01:04:00,65.8,64.0,29.94,WSW,239,0.0,0.0,94,0.00,,,0.00,VWS V14.01,2013-07-22 05:04:00,
2013-07-22 01:09:00,65.6,63.8,29.94,WSW,239,0.0,0.0,94,0.00,,,0.00,VWS V14.01,2013-07-22 05:09:00,
2013-07-22 01:14:00,65.4,63.9,29.95,WSW,239,0.0,0.0,95,0.00,,,0.00,VWS V14.01,2013-07-22 05:14:00,
2013-07-22 01:20:00,65.3,63.8,29.95,WSW,239,0.0,0.0,95,0.00,,,0.00,VWS V14.01,2013-07-22 05:20:00,
2013-07-22 01:25:00,65.3,63.8,29.95,WSW,239,0.0,0.0,95,0.00,,,0.00,VWS V14.01,2013-07-22 05:25:00,
2013-07-22 01:30:00,65.2,63.7,29.95,WSW,239,0.0,0.0,95,0.00,,,0.00,VWS V14.01,2013-07-22 05:30:00,
2013-07-22 01:35:00,65.1,63.6,29.95,WSW,239,0.0,0.0,95,0.00,,,0.00,VWS V14.01,2013-07-22 05:35:00,
2013-07-22 01:40:00,65.0,63.5,29.94,WSW,239,0.0,0.0,95,0.00,,,0.00,VWS V14.01,2013-07-22 05:40:00,
2013-07-22 01:45:00,64.9,63.4,29.95,WSW,239,0.0,0.0,95,0.00,,,0.00,VWS V14.01,2013-07-22 05:45:00,
2013-07-22 01:50:00,64.7,63.2,29.95,WSW,239,0.0,0.0,95,0.00,,,0.00,VWS V14.01,2013-07-22 05:50:00,
2013-07-22 01:55:00,64.7,63.5,29.95,WSW,239,0.0,0.0,96,0.00,,,0.00,VWS V14.01,2013-07-22 05:55:00,
2013-07-22 02:00:00,64.6,63.4,29.95,WSW,239,0.0,0.0,96,0.00,,,0.00,VWS V14.01,2013-07-22 06:00:00,
2013-07-22 02:05:00,64.6,63.4,29.95,WSW,239,0.0,0.0,96,0.00,,,0.00,VWS V14.01,2013-07-22 06:05:00,
2013-07-22 02:11:00,64.5,63.3,29.95,WSW,239,0.0,0.0,96,0.00,,,0.00,VWS V14.01,2013-07-22 06:11:00,
2013-07-22 02:16:00,64.5,63.3,29.94,WSW,239,0.0,0.0,96,0.00,,,0.00,VWS V14.01,2013-07-22 06:16:00,
2013-07-22 02:21:00,64.4,63.2,29.94,WSW,239,0.0,0.0,96,0.00,,,0.00,VWS V14.01,2013-07-22 06:21:00,
2013-07-22 02:26:00,64.3,63.1,29.94,WSW,239,0.0,0.0,96,0.00,,,0.00,VWS V14.01,2013-07-22 06:26:00,
2013-07-22 02:31:00,64.2,63.0,29.94,WSW,239,0.0,0.0,96,0.00,,,0.00,VWS V14.01,2013-07-22 06:31:00,
2013-07-22 02:36:00,64.2,63.0,29.94,WSW,239,0.0,0.0,96,0.00,,,0.00,VWS V14.01,2013-07-22 06:36:00,
2013-07-22 02:41:00,64.3,63.1,29.94,WSW,239,0.0,0.0,96,0.00,,,0.00,VWS V14.01,2013-07-22 06:41:00,
2013-07-22 02:46:00,64.3,63.1,29.93,WSW,239,0.0,0.0,96,0.00,,,0.00,VWS V14.01,2013-07-22 06:46:00,
2013-07-22 02:52:00,64.2,63.0,29.93,WSW,239,0.0,0.0,96,0.00,,,0.00,VWS V14.01,2013-07-22 06:52:00,
2013-07-22 02:56:00,64.1,62.9,29.94,WSW,239,0.0,0.0,96,0.00,,,0.00,VWS V14.01,2013-07-22 06:56:00,
2013-07-22 03:02:00,64.1,63.2,29.94,WSW,239,0.0,0.0,97,0.00,,,0.00,VWS V14.01,2013-07-22 07:02:00,
2013-07-22 03:07:00,64.1,63.2,29.94,WSW,239,0.0,0.0,97,0.00,,,0.00,VWS V14.01,2013-07-22 07:07:00,
2013-07-22 03:12:00,64.0,63.1,29.94,WSW,239,0.0,0.0,97,0.00,,,0.00,VWS V14.01,2013-07-22 07:12:00,
2013-07-22 03:17:00,64.0,63.1,29.93,WSW,239,0.0,0.0,97,0.00,,,0.00,VWS V14.01,2013-07-22 07:17:00,
2013-07-22 03:22:00,64.0,63.1,29.93,WSW,239,0.0,0.0,97,0.00,,,0.00,VWS V14.01,2013-07-22 07:22:00,
2013-07-22 03:27:00,63.9,63.0,29.93,WSW,239,0.0,0.0,97,0.00,,,0.00,VWS V14.01,2013-07-22 07:27:00,
2013-07-22 03:32:00,63.9,63.0,29.93,WSW,239,0.0,0.0,97,0.00,,,0.00,VWS V14.01,2013-07-22 07:32:00,
2013-07-22 03:37:00,63.9,63.0,29.93,WSW,239,0.0,0.0,97,0.00,,,0.00,VWS V14.01,2013-07-22 07:37:00,
2013-07-22 03:43:00,63.9,63.0,29.93,WSW,239,0.0,0.0,97,0.00,,,0.00,VWS V14.01,2013-07-22 07:43:00,
2013-07-22 03:48:00,63.8,62.9,29.93,WSW,239,0.0,0.0,97,0.00,,,0.00,VWS V14.01,2013-07-22 07:48:00,
2013-07-22 03:53:00,63.7,62.8,29.93,WSW,239,0.0,0.0,97,0.00,,,0.00,VWS V14.01,2013-07-22 07:53:00,
2013-07-22 03:58:00,63.8,62.9,29.94,WSW,239,0.0,0.0,97,0.00,,,0.00,VWS V14.01,2013-07-22 07:58:00,
2013-07-22 04:03:00,63.8,62.9,29.94,WSW,239,0.0,0.0,97,0.00,,,0.00,VWS V14.01,2013-07-22 08:03:00,
2013-07-22 04:08:00,63.6,62.7,29.93,WSW,239,0.0,0.0,97,0.00,,,0.00,VWS V14.01,2013-07-22 08:08:00,
2013-07-22 04:13:00,63.5,62.6,29.93,WSW,239,0.0,0.0,97,0.00,,,0.00,VWS V14.01,2013-07-22 08:13:00,
2013-07-22 04:18:00,63.4,62.5,29.93,WSW,239,0.0,0.0,97,0.00,,,0.00,VWS V14.01,2013-07-22 08:18:00,
2013-07-22 04:23:00,63.4,62.5,29.93,WSW,239,0.0,0.0,97,0.00,,,0.00,VWS V14.01,2013-07-22 08:23:00,
2013-07-22 04:28:00,63.4,62.5,29.94,WSW,239,0.0,0.0,97,0.00,,,0.00,VWS V14.01,2013-07-22 08:28:00,
2013-07-22 04:34:00,63.3,62.4,29.94,WSW,239,0.0,0.0,97,0.00,,,0.00,VWS V14.01,2013-07-22 08:34:00,
2013-07-22 04:39:00,63.4,62.5,29.94,WSW,239,0.0,0.0,97,0.00,,,0.00,VWS V14.01,2013-07-22 08:39:00,
2013-07-22 04:44:00,63.3,62.4,29.94,WSW,239,0.0,0.0,97,0.00,,,0.00,VWS V14.01,2013-07-22 08:44:00,
2013-07-22 04:49:00,63.2,62.3,29.94,WSW,239,0.0,0.0,97,0.00,,,0.00,VWS V14.01,2013-07-22 08:49:00,
2013-07-22 04:54:00,63.2,62.3,29.94,WSW,239,0.0,0.0,97,0.00,,,0.00,VWS V14.01,2013-07-22 08:54:00,
2013-07-22 04:59:00,63.2,62.3,29.94,WSW,239,0.0,0.0,97,0.00,,,0.00,VWS V14.01,2013-07-22 08:59:00,
2013-07-22 05:04:00,63.1,62.2,29.94,WSW,239,0.0,0.0,97,0.00,,,0.00,VWS V14.01,2013-07-22 09:04:00,
2013-07-22 05:09:00,63.1,62.2,29.93,WSW,239,0.0,0.0,97,0.00,,,0.00,VWS V14.01,2013-07-22 09:09:00,
2013-07-22 05:14:00,63.2,62.6,29.93,WSW,239,0.0,0.0,98,0.00,,,0.00,VWS V14.01,2013-07-22 09:14:00,
2013-07-22 05:19:00,63.2,62.6,29.93,WSW,239,0.0,0.0,98,0.00,,,0.00,VWS V14.01,2013-07-22 09:19:00,
2013-07-22 05:24:00,63.2,62.6,29.94,WSW,239,0.0,0.0,98,0.00,,,0.00,VWS V14.01,2013-07-22 09:24:00,
2013-07-22 05:30:00,63.1,62.5,29.94,WSW,239,0.0,0.0,98,0.00,,,0.00,VWS V14.01,2013-07-22 09:30:00,
2013-07-22 05:35:00,63.1,62.5,29.94,WSW,239,0.0,0.0,98,0.00,,,0.00,VWS V14.01,2013-07-22 09:35:00,
2013-07-22 05:40:00,63.1,62.5,29.94,WSW,239,0.0,0.0,98,0.00,,,0.00,VWS V14.01,2013-07-22 09:40:00,
2013-07-22 05:45:00,63.1,62.5,29.94,WSW,239,0.0,0.0,98,0.00,,,0.00,VWS V14.01,2013-07-22 09:45:00,
2013-07-22 05:50:00,63.1,62.5,29.94,WSW,239,0.0,0.0,98,0.00,,,0.00,VWS V14.01,2013-07-22 09:50:00,
2013-07-22 05:55:00,63.1,62.5,29.94,WSW,239,0.0,0.0,98,0.00,,,0.00,VWS V14.01,2013-07-22 09:55:00,
2013-07-22 06:00:00,63.2,62.6,29.95,WSW,239,0.0,0.0,98,0.00,,,0.00,VWS V14.01,2013-07-22 10:00:00,
2013-07-22 06:05:00,63.2,62.6,29.95,WSW,239,0.0,0.0,98,0.00,,,0.00,VWS V14.01,2013-07-22 10:05:00,
2013-07-22 06:10:00,63.2,62.6,29.95,WSW,239,0.0,0.0,98,0.00,,,0.00,VWS V14.01,2013-07-22 10:10:00,
2013-07-22 06:15:00,63.4,62.8,29.94,WSW,239,0.0,0.0,98,0.00,,,0.00,VWS V14.01,2013-07-22 10:15:00,
2013-07-22 06:20:00,63.5,62.9,29.94,WSW,239,0.0,0.0,98,0.00,,,0.00,VWS V14.01,2013-07-22 10:20:00,
2013-07-22 06:25:00,63.6,63.0,29.94,WSW,239,0.0,0.0,98,0.00,,,0.00,VWS V14.01,2013-07-22 10:25:00,
2013-07-22 06:30:00,63.8,63.2,29.94,WSW,239,0.0,0.0,98,0.00,,,0.00,VWS V14.01,2013-07-22 10:30:00,
2013-07-22 06:36:00,64.1,63.5,29.95,WSW,239,0.0,0.0,98,0.00,,,0.00,VWS V14.01,2013-07-22 10:36:00,
2013-07-22 06:41:00,64.3,64.0,29.95,WSW,239,0.0,0.0,99,0.00,,,0.00,VWS V14.01,2013-07-22 10:41:00,
2013-07-22 06:46:00,64.5,63.9,29.95,WSW,239,0.0,0.0,98,0.00,,,0.00,VWS V14.01,2013-07-22 10:46:00,
2013-07-22 06:51:00,64.8,64.2,29.94,WSW,239,0.0,0.0,98,0.00,,,0.00,VWS V14.01,2013-07-22 10:51:00,
2013-07-22 06:56:00,65.2,64.6,29.94,WSW,239,0.0,0.0,98,0.00,,,0.00,VWS V14.01,2013-07-22 10:56:00,
2013-07-22 07:01:00,65.4,64.8,29.94,WSW,239,0.0,0.0,98,0.00,,,0.00,VWS V14.01,2013-07-22 11:01:00,
2013-07-22 07:06:00,65.6,65.0,29.95,WSW,239,0.0,0.0,98,0.00,,,0.00,VWS V14.01,2013-07-22 11:06:00,
2013-07-22 07:11:00,65.9,65.3,29.95,WSW,239,0.0,0.0,98,0.00,,,0.00,VWS V14.01,2013-07-22 11:11:00,
2013-07-22 07:16:00,66.1,65.5,29.95,WSW,239,0.0,0.0,98,0.00,,,0.00,VWS V14.01,2013-07-22 11:16:00,
2013-07-22 07:21:00,66.3,65.7,29.95,WSW,239,0.0,0.0,98,0.00,,,0.00,VWS V14.01,2013-07-22 11:21:00,
2013-07-22 07:26:00,66.5,65.9,29.95,WSW,239,0.0,0.0,98,0.00,,,0.00,VWS V14.01,2013-07-22 11:26:00,
2013-07-22 07:31:00,66.9,66.3,29.95,WSW,239,0.0,0.0,98,0.00,,,0.00,VWS V14.01,2013-07-22 11:31:00,
2013-07-22 07:36:00,67.2,66.6,29.95,WSW,239,0.0,0.0,98,0.00,,,0.00,VWS V14.01,2013-07-22 11:36:00,
2013-07-22 07:41:00,67.4,66.5,29.95,WSW,239,0.0,0.0,97,0.00,,,0.00,VWS V14.01,2013-07-22 11:41:00,
2013-07-22 07:46:00,67.7,66.5,29.95,WSW,239,0.0,0.0,96,0.00,,,0.00,VWS V14.01,2013-07-22 11:46:00,
2013-07-22 07:51:00,68.0,66.8,29.95,WSW,239,0.0,0.0,96,0.00,,,0.00,VWS V14.01,2013-07-22 11:51:00,
2013-07-22 07:57:00,68.3,67.1,29.95,WSW,239,0.0,0.0,96,0.00,,,0.00,VWS V14.01,2013-07-22 11:57:00,
2013-07-22 08:02:00,68.6,67.1,29.95,WSW,239,0.0,0.0,95,0.00,,,0.00,VWS V14.01,2013-07-22 12:02:00,
2013-07-22 08:07:00,68.9,67.4,29.95,WSW,239,0.0,0.0,95,0.00,,,0.00,VWS V14.01,2013-07-22 12:07:00,
2013-07-22 08:12:00,69.4,67.9,29.95,WSW,239,0.0,0.0,95,0.00,,,0.00,VWS V14.01,2013-07-22 12:12:00,
2013-07-22 08:17:00,70.0,68.2,29.95,WSW,239,0.0,0.0,94,0.00,,,0.00,VWS V14.01,2013-07-22 12:17:00,
2013-07-22 08:22:00,70.7,68.9,29.95,WSW,239,0.0,0.0,94,0.00,,,0.00,VWS V14.01,2013-07-22 12:22:00,
2013-07-22 08:27:00,71.2,68.8,29.95,WSW,239,0.0,0.0,92,0.00,,,0.00,VWS V14.01,2013-07-22 12:27:00,
2013-07-22 08:32:00,72.0,68.6,29.95,WSW,239,0.0,0.0,89,0.00,,,0.00,VWS V14.01,2013-07-22 12:32:00,
2013-07-22 08:37:00,72.9,69.5,29.95,WSW,239,0.0,0.0,89,0.00,,,0.00,VWS V14.01,2013-07-22 12:37:00,
2013-07-22 08:42:00,73.6,69.5,29.95,WSW,239,0.0,0.0,87,0.00,,,0.00,VWS V14.01,2013-07-22 12:42:00,
2013-07-22 08:47:00,74.2,69.4,29.96,WSW,239,0.0,0.0,85,0.00,,,0.00,VWS V14.01,2013-07-22 12:47:00,
2013-07-22 08:52:00,74.8,69.7,29.96,WSW,239,0.0,0.0,84,0.00,,,0.00,VWS V14.01,2013-07-22 12:52:00,
2013-07-22 08:57:00,75.8,70.6,29.95,SW,227,0.0,0.0,84,0.00,,,0.00,VWS V14.01,2013-07-22 12:57:00,
2013-07-22 09:02:00,76.2,69.9,29.95,SW,228,0.0,0.0,81,0.00,,,0.00,VWS V14.01,2013-07-22 13:02:00,
2013-07-22 09:07:00,76.9,71.0,29.95,SW,228,0.0,0.0,82,0.00,,,0.00,VWS V14.01,2013-07-22 13:07:00,
2013-07-22 09:12:00,77.3,70.7,29.95,SW,228,0.0,0.0,80,0.00,,,0.00,VWS V14.01,2013-07-22 13:12:00,
2013-07-22 09:18:00,78.1,71.8,29.95,SW,228,0.0,0.0,81,0.00,,,0.00,VWS V14.01,2013-07-22 13:18:00,
2013-07-22 09:23:00,78.7,72.0,29.95,SW,229,0.0,0.0,80,0.00,,,0.00,VWS V14.01,2013-07-22 13:23:00,
2013-07-22 09:28:00,78.7,70.9,29.94,SW,229,0.0,0.0,77,0.00,,,0.00,VWS V14.01,2013-07-22 13:28:00,
2013-07-22 09:33:00,79.0,71.2,29.94,SE,126,0.0,0.0,77,0.00,,,0.00,VWS V14.01,2013-07-22 13:33:00,
2013-07-22 09:38:00,79.5,72.0,29.94,SE,126,0.0,0.0,78,0.00,,,0.00,VWS V14.01,2013-07-22 13:38:00,
2013-07-22 09:43:00,79.9,71.7,29.94,SE,135,0.0,0.0,76,0.00,,,0.00,VWS V14.01,2013-07-22 13:43:00,
2013-07-22 09:48:00,80.2,71.9,29.94,SE,135,0.0,0.0,76,0.00,,,0.00,VWS V14.01,2013-07-22 13:48:00,
2013-07-22 09:53:00,80.3,71.7,29.94,NNW,327,0.0,0.0,75,0.00,,,0.00,VWS V14.01,2013-07-22 13:53:00,
2013-07-22 09:58:00,80.4,72.9,29.94,WNW,293,0.0,0.0,78,0.00,,,0.00,VWS V14.01,2013-07-22 13:58:00,
2013-07-22 10:03:00,80.3,71.3,29.94,West,275,0.0,0.0,74,0.00,,,0.00,VWS V14.01,2013-07-22 14:03:00,
2013-07-22 10:08:00,80.3,70.9,29.94,SW,214,0.0,0.0,73,0.00,,,0.00,VWS V14.01,2013-07-22 14:08:00,
2013-07-22 10:13:00,80.4,71.4,29.94,North,350,0.0,0.0,74,0.00,,,0.00,VWS V14.01,2013-07-22 14:13:00,
2013-07-22 10:18:00,80.7,72.8,29.94,North,350,0.0,0.0,77,0.00,,,0.00,VWS V14.01,2013-07-22 14:18:00,
2013-07-22 10:23:00,81.2,72.5,29.94,North,350,0.0,0.0,75,0.00,,,0.00,VWS V14.01,2013-07-22 14:23:00,
2013-07-22 10:28:00,81.8,71.1,29.94,ESE,115,0.0,0.0,70,0.00,,,0.00,VWS V14.01,2013-07-22 14:28:00,
2013-07-22 10:33:00,82.3,73.2,29.94,East,84,0.0,0.0,74,0.00,,,0.00,VWS V14.01,2013-07-22 14:33:00,
2013-07-22 10:38:00,83.0,72.2,29.94,East,84,0.0,0.0,70,0.00,,,0.00,VWS V14.01,2013-07-22 14:38:00,
2013-07-22 10:43:00,83.5,72.7,29.94,East,84,0.0,0.0,70,0.00,,,0.00,VWS V14.01,2013-07-22 14:43:00,
2013-07-22 10:48:00,83.8,71.7,29.93,East,85,0.0,0.0,67,0.00,,,0.00,VWS V14.01,2013-07-22 14:48:00,
2013-07-22 10:53:00,84.3,71.7,29.94,ENE,60,0.0,0.0,66,0.00,,,0.00,VWS V14.01,2013-07-22 14:53:00,
2013-07-22 10:58:00,84.1,71.1,29.94,ENE,78,0.0,0.0,65,0.00,,,0.00,VWS V14.01,2013-07-22 14:58:00,
2013-07-22 11:03:00,84.0,71.9,29.94,ENE,78,0.0,0.0,67,0.00,,,0.00,VWS V14.01,2013-07-22 15:03:00,
2013-07-22 11:08:00,83.7,72.5,29.94,ENE,70,0.0,0.0,69,0.00,,,0.00,VWS V14.01,2013-07-22 15:08:00,
2013-07-22 11:13:00,83.2,72.4,29.94,ENE,69,0.0,0.0,70,0.00,,,0.00,VWS V14.01,2013-07-22 15:13:00,
2013-07-22 11:19:00,83.2,73.7,29.94,East,80,0.0,0.0,73,0.00,,,0.00,VWS V14.01,2013-07-22 15:19:00,
2013-07-22 11:24:00,83.4,73.0,29.93,NE,42,0.0,0.0,71,0.00,,,0.00,VWS V14.01,2013-07-22 15:24:00,
2013-07-22 11:29:00,83.2,72.8,29.93,NE,42,0.0,0.0,71,0.00,,,0.00,VWS V14.01,2013-07-22 15:29:00,
2013-07-22 11:34:00,82.8,72.0,29.93,NNE,23,0.0,0.0,70,0.00,,,0.00,VWS V14.01,2013-07-22 15:34:00,
2013-07-22 11:39:00,82.3,71.5,29.93,ENE,75,0.0,0.0,70,0.00,,,0.00,VWS V14.01,2013-07-22 15:39:00,
2013-07-22 11:44:00,82.0,72.5,29.93,SE,138,0.0,0.0,73,0.00,,,0.00,VWS V14.01,2013-07-22 15:44:00,
2013-07-22 11:49:00,81.8,71.5,29.93,ENE,57,0.0,0.0,71,0.00,,,0.00,VWS V14.01,2013-07-22 15:49:00,
2013-07-22 11:54:00,81.5,72.0,29.93,East,84,0.0,0.0,73,0.00,,,0.00,VWS V14.01,2013-07-22 15:54:00,
2013-07-22 12:00:00,81.5,72.4,29.93,NW,316,0.0,0.0,74,0.00,,,0.00,VWS V14.01,2013-07-22 16:00:00,
2013-07-22 12:05:00,81.4,72.3,29.93,ENE,66,0.0,0.0,74,0.00,,,0.00,VWS V14.01,2013-07-22 16:05:00,
2013-07-22 12:10:00,81.3,73.0,29.93,ENE,66,0.0,0.0,76,0.00,,,0.00,VWS V14.01,2013-07-22 16:10:00,
2013-07-22 12:15:00,80.7,71.7,29.93,East,90,0.0,0.0,74,0.00,,,0.00,VWS V14.01,2013-07-22 16:15:00,
2013-07-22 12:20:00,80.2,71.9,29.93,East,80,0.0,0.0,76,0.00,,,0.00,VWS V14.01,2013-07-22 16:20:00,
2013-07-22 12:25:00,80.0,72.2,29.93,East,80,0.0,0.0,77,0.00,,,0.00,VWS V14.01,2013-07-22 16:25:00,
2013-07-22 12:30:00,80.2,72.3,29.93,NE,43,0.0,0.0,77,0.00,,,0.00,VWS V14.01,2013-07-22 16:30:00,
2013-07-22 12:35:00,80.5,73.8,29.93,ENE,78,0.0,0.0,80,0.00,,,0.00,VWS V14.01,2013-07-22 16:35:00,
2013-07-22 12:40:00,81.0,73.5,29.93,East,82,0.0,0.0,78,0.00,,,0.00,VWS V14.01,2013-07-22 16:40:00,
2013-07-22 12:45:00,81.5,74.0,29.93,ENE,61,0.0,0.0,78,0.00,,,0.00,VWS V14.01,2013-07-22 16:45:00,
2013-07-22 12:50:00,82.0,74.5,29.92,NE,38,0.0,0.0,78,0.00,,,0.00,VWS V14.01,2013-07-22 16:50:00,
2013-07-22 12:55:00,82.3,73.2,29.92,SW,219,0.0,0.0,74,0.00,,,0.00,VWS V14.01,2013-07-22 16:55:00,
2013-07-22 13:00:00,82.1,74.2,29.92,ENE,74,0.0,0.0,77,0.00,,,0.00,VWS V14.01,2013-07-22 17:00:00,
2013-07-22 13:06:00,82.1,73.4,29.92,ENE,74,0.0,0.0,75,0.00,,,0.00,VWS V14.01,2013-07-22 17:06:00,
2013-07-22 13:11:00,82.0,72.9,29.92,ENE,74,0.0,0.0,74,0.00,,,0.00,VWS V14.01,2013-07-22 17:11:00,
2013-07-22 13:16:00,82.5,74.9,29.92,ESE,103,0.0,0.0,78,0.00,,,0.00,VWS V14.01,2013-07-22 17:16:00,
2013-07-22 13:21:00,83.0,74.3,29.91,East,101,0.0,0.0,75,0.00,,,0.00,VWS V14.01,2013-07-22 17:21:00,
2013-07-22 13:26:00,83.3,74.2,29.91,SE,146,0.0,0.0,74,0.00,,,0.00,VWS V14.01,2013-07-22 17:26:00,
2013-07-22 13:31:00,83.7,74.9,29.91,SSW,204,0.0,0.0,75,0.00,,,0.00,VWS V14.01,2013-07-22 17:31:00,
2013-07-22 13:36:00,83.8,74.6,29.91,NE,50,0.0,0.0,74,0.00,,,0.00,VWS V14.01,2013-07-22 17:36:00,
2013-07-22 13:41:00,83.8,75.0,29.90,NE,46,0.0,0.0,75,0.00,,,0.00,VWS V14.01,2013-07-22 17:41:00,
2013-07-22 13:46:00,83.8,74.2,29.90,East,92,0.0,0.0,73,0.00,,,0.00,VWS V14.01,2013-07-22 17:46:00,
2013-07-22 13:51:00,83.7,74.1,29.90,East,90,0.0,0.0,73,0.00,,,0.00,VWS V14.01,2013-07-22 17:51:00,
2013-07-22 13:56:00,83.5,74.3,29.90,East,98,0.0,0.0,74,0.00,,,0.00,VWS V14.01,2013-07-22 17:56:00,
2013-07-22 14:01:00,83.5,73.5,29.90,East,98,0.0,0.0,72,0.00,,,0.00,VWS V14.01,2013-07-22 18:01:00,
2013-07-22 14:06:00,83.6,73.6,29.90,East,98,0.0,0.0,72,0.00,,,0.00,VWS V14.01,2013-07-22 18:06:00,
2013-07-22 14:12:00,83.5,73.9,29.89,East,98,0.0,0.0,73,0.00,,,0.00,VWS V14.01,2013-07-22 18:12:00,
2013-07-22 14:17:00,83.4,74.7,29.89,East,84,0.0,0.0,75,0.00,,,0.00,VWS V14.01,2013-07-22 18:17:00,
2013-07-22 14:22:00,83.4,73.4,29.89,East,84,0.0,0.0,72,0.00,,,0.00,VWS V14.01,2013-07-22 18:22:00,
2013-07-22 14:27:00,83.5,74.8,29.89,SE,124,0.0,0.0,75,0.00,,,0.00,VWS V14.01,2013-07-22 18:27:00,
2013-07-22 14:32:00,83.4,73.8,29.89,South,173,0.0,0.0,73,0.00,,,0.00,VWS V14.01,2013-07-22 18:32:00,
2013-07-22 14:37:00,83.3,74.6,29.89,South,173,0.0,0.0,75,0.00,,,0.00,VWS V14.01,2013-07-22 18:37:00,
2013-07-22 14:42:00,83.2,74.8,29.89,ESE,123,0.0,0.0,76,0.00,,,0.00,VWS V14.01,2013-07-22 18:42:00,
2013-07-22 14:47:00,83.1,74.0,29.89,SSE,148,0.0,0.0,74,0.00,,,0.00,VWS V14.01,2013-07-22 18:47:00,
2013-07-22 14:52:00,83.0,74.7,29.89,SSE,148,0.0,0.0,76,0.00,,,0.00,VWS V14.01,2013-07-22 18:52:00,
2013-07-22 14:57:00,83.0,75.4,29.89,SE,146,0.0,0.0,78,0.00,,,0.00,VWS V14.01,2013-07-22 18:57:00,
2013-07-22 15:03:00,83.1,74.4,29.89,SE,146,0.0,0.0,75,0.00,,,0.00,VWS V14.01,2013-07-22 19:03:00,
2013-07-22 15:08:00,83.0,74.7,29.88,SE,146,0.0,0.0,76,0.00,,,0.00,VWS V14.01,2013-07-22 19:08:00,
2013-07-22 15:14:00,82.5,73.0,29.88,ENE,61,0.0,0.0,73,0.00,,,0.00,VWS V14.01,2013-07-22 19:14:00,
2013-07-22 15:19:00,82.1,73.4,29.88,ENE,64,0.0,0.0,75,0.00,,,0.00,VWS V14.01,2013-07-22 19:19:00,
2013-07-22 15:24:00,81.8,73.1,29.88,ENE,64,0.0,0.0,75,0.00,,,0.00,VWS V14.01,2013-07-22 19:24:00,
2013-07-22 15:29:00,81.6,73.3,29.88,ENE,65,0.0,0.0,76,0.00,,,0.00,VWS V14.01,2013-07-22 19:29:00,
2013-07-22 15:34:00,81.5,73.2,29.88,ENE,65,0.0,0.0,76,0.00,,,0.00,VWS V14.01,2013-07-22 19:34:00,
2013-07-22 15:39:00,81.6,74.1,29.87,ENE,66,0.0,0.0,78,0.00,,,0.00,VWS V14.01,2013-07-22 19:39:00,
2013-07-22 15:45:00,81.8,73.9,29.87,East,86,0.0,0.0,77,0.00,,,0.00,VWS V14.01,2013-07-22 19:45:00,
2013-07-22 15:50:00,82.2,74.3,29.86,East,86,0.0,0.0,77,0.00,,,0.00,VWS V14.01,2013-07-22 19:50:00,
2013-07-22 15:55:00,82.7,74.4,29.86,ENE,58,0.0,0.0,76,0.00,,,0.00,VWS V14.01,2013-07-22 19:55:00,
2013-07-22 16:00:00,83.0,74.7,29.86,ENE,58,0.0,0.0,76,0.00,,,0.00,VWS V14.01,2013-07-22 20:00:00,
2013-07-22 16:05:00,83.4,73.8,29.86,East,84,0.0,0.0,73,0.00,,,0.00,VWS V14.01,2013-07-22 20:05:00,
2013-07-22 16:10:00,83.5,74.3,29.85,East,84,0.0,0.0,74,0.00,,,0.00,VWS V14.01,2013-07-22 20:10:00,
2013-07-22 16:15:00,83.7,74.1,29.85,NW,308,0.0,0.0,73,0.00,,,0.00,VWS V14.01,2013-07-22 20:15:00,
2013-07-22 16:17:00,83.7,74.1,29.85,ENE,58,0.0,0.0,73,0.00,,,0.00,VWS V14.01,2013-07-22 20:17:00,
2013-07-22 16:18:00,83.7,73.3,29.85,ENE,58,0.0,0.0,71,0.00,,,0.00,VWS V14.01,2013-07-22 20:18:00,
2013-07-22 16:23:00,83.4,73.0,29.85,NE,42,0.0,0.0,71,0.00,,,0.00,VWS V14.01,2013-07-22 20:23:00,
2013-07-22 16:28:00,82.9,73.8,29.85,ENE,65,0.0,0.0,74,0.00,,,0.00,VWS V14.01,2013-07-22 20:28:00,
2013-07-22 16:33:00,82.1,73.4,29.85,ENE,65,0.0,0.0,75,0.00,,,0.00,VWS V14.01,2013-07-22 20:33:00,
2013-07-22 16:38:00,81.5,74.7,29.86,ENE,65,0.0,0.0,80,0.00,,,0.00,VWS V14.01,2013-07-22 20:38:00,
2013-07-22 16:43:00,80.5,74.5,29.86,ENE,65,0.0,0.0,82,0.00,,,0.00,VWS V14.01,2013-07-22 20:43:00,
2013-07-22 16:49:00,79.4,74.5,29.85,North,360,0.0,0.0,85,0.00,,,0.00,VWS V14.01,2013-07-22 20:49:00,
2013-07-22 16:54:00,78.4,74.6,29.85,North,360,0.0,0.0,88,0.01,,,0.01,VWS V14.01,2013-07-22 20:54:00,
2013-07-22 16:59:00,78.0,75.2,29.85,North,360,0.0,0.0,91,0.02,,,0.02,VWS V14.01,2013-07-22 20:59:00,
2013-07-22 17:04:00,77.9,75.4,29.85,North,360,0.0,0.0,92,0.02,,,0.02,VWS V14.01,2013-07-22 21:04:00,
2013-07-22 17:09:00,77.8,75.6,29.85,North,360,0.0,0.0,93,0.02,,,0.02,VWS V14.01,2013-07-22 21:09:00,
2013-07-22 17:14:00,77.6,75.1,29.85,North,360,0.0,0.0,92,0.03,,,0.03,VWS V14.01,2013-07-22 21:14:00,
2013-07-22 17:19:00,77.5,75.3,29.84,West,273,0.0,0.0,93,0.04,,,0.04,VWS V14.01,2013-07-22 21:19:00,
2013-07-22 17:24:00,77.2,74.4,29.84,West,273,0.0,0.0,91,0.04,,,0.04,VWS V14.01,2013-07-22 21:24:00,
2013-07-22 17:29:00,77.4,75.2,29.84,West,273,0.0,0.0,93,0.04,,,0.04,VWS V14.01,2013-07-22 21:29:00,
2013-07-22 17:34:00,77.4,75.5,29.84,West,273,0.0,0.0,94,0.04,,,0.04,VWS V14.01,2013-07-22 21:34:00,
2013-07-22 17:40:00,77.4,75.2,29.84,West,273,0.0,0.0,93,0.04,,,0.04,VWS V14.01,2013-07-22 21:40:00,
2013-07-22 17:45:00,77.3,75.1,29.84,West,273,0.0,0.0,93,0.04,,,0.04,VWS V14.01,2013-07-22 21:45:00,
2013-07-22 17:50:00,77.1,74.9,29.84,West,273,0.0,0.0,93,0.05,,,0.05,VWS V14.01,2013-07-22 21:50:00,
2013-07-22 17:55:00,76.9,74.1,29.84,West,278,0.0,0.0,91,0.05,,,0.05,VWS V14.01,2013-07-22 21:55:00,
2013-07-22 18:00:00,76.8,74.3,29.84,WNW,286,0.0,0.0,92,0.06,,,0.06,VWS V14.01,2013-07-22 22:00:00,
2013-07-22 18:05:00,76.7,74.2,29.84,WNW,286,0.0,0.0,92,0.04,,,0.06,VWS V14.01,2013-07-22 22:05:00,
2013-07-22 18:10:00,76.7,74.5,29.83,WNW,287,0.0,0.0,93,0.04,,,0.06,VWS V14.01,2013-07-22 22:10:00,
2013-07-22 18:15:00,76.6,74.4,29.83,WNW,287,0.0,0.0,93,0.04,,,0.06,VWS V14.01,2013-07-22 22:15:00,
2013-07-22 18:20:00,76.6,74.8,29.83,WNW,287,0.0,0.0,94,0.04,,,0.06,VWS V14.01,2013-07-22 22:20:00,
2013-07-22 18:25:00,76.4,74.6,29.83,WNW,287,0.0,0.0,94,0.04,,,0.06,VWS V14.01,2013-07-22 22:25:00,
2013-07-22 18:30:00,76.2,74.0,29.83,WNW,287,0.0,0.0,93,0.04,,,0.06,VWS V14.01,2013-07-22 22:30:00,
2013-07-22 18:35:00,76.1,73.9,29.83,WNW,287,0.0,0.0,93,0.03,,,0.07,VWS V14.01,2013-07-22 22:35:00,
2013-07-22 18:41:00,76.1,74.2,29.84,WNW,287,0.0,0.0,94,0.03,,,0.07,VWS V14.01,2013-07-22 22:41:00,
2013-07-22 18:46:00,76.0,74.2,29.84,WNW,287,0.0,0.0,94,0.03,,,0.07,VWS V14.01,2013-07-22 22:46:00,
2013-07-22 18:51:00,75.8,73.9,29.84,WNW,287,0.0,0.0,94,0.04,,,0.08,VWS V14.01,2013-07-22 22:51:00,
2013-07-22 18:56:00,75.7,73.8,29.84,WNW,287,0.0,0.0,94,0.04,,,0.08,VWS V14.01,2013-07-22 22:56:00,
2013-07-22 19:01:00,75.5,73.7,29.84,WNW,287,0.0,0.0,94,0.02,,,0.08,VWS V14.01,2013-07-22 23:01:00,
2013-07-22 19:06:00,75.5,73.7,29.83,WNW,287,0.0,0.0,94,0.02,,,0.08,VWS V14.01,2013-07-22 23:06:00,
2013-07-22 19:11:00,75.4,73.9,29.84,WNW,287,0.0,0.0,95,0.02,,,0.08,VWS V14.01,2013-07-22 23:11:00,
2013-07-22 19:16:00,75.1,73.3,29.83,WNW,287,0.0,0.0,94,0.02,,,0.08,VWS V14.01,2013-07-22 23:16:00,
2013-07-22 19:21:00,74.9,73.4,29.84,WNW,287,0.0,0.0,95,0.02,,,0.08,VWS V14.01,2013-07-22 23:21:00,
2013-07-22 19:26:00,74.8,73.3,29.84,WNW,287,0.0,0.0,95,0.02,,,0.08,VWS V14.01,2013-07-22 23:26:00,
2013-07-22 19:31:00,74.6,73.1,29.84,WNW,287,0.0,0.0,95,0.02,,,0.08,VWS V14.01,2013-07-22 23:31:00,
2013-07-22 19:36:00,74.6,73.1,29.84,WNW,287,0.0,0.0,95,0.03,,,0.09,VWS V14.01,2013-07-22 23:36:00,
2013-07-22 19:42:00,74.5,73.0,29.84,WNW,287,0.0,0.0,95,0.03,,,0.09,VWS V14.01,2013-07-22 23:42:00,
2013-07-22 19:47:00,74.4,73.2,29.84,WNW,287,0.0,0.0,96,0.03,,,0.09,VWS V14.01,2013-07-22 23:47:00,
2013-07-22 19:52:00,74.4,73.2,29.83,WNW,287,0.0,0.0,96,0.03,,,0.09,VWS V14.01,2013-07-22 23:52:00,
2013-07-22 19:57:00,74.3,73.1,29.83,WNW,287,0.0,0.0,96,0.04,,,0.10,VWS V14.01,2013-07-22 23:57:00,
2013-07-22 20:02:00,74.2,73.0,29.84,WNW,287,0.0,0.0,96,0.02,,,0.10,VWS V14.01,2013-07-23 00:02:00,
2013-07-22 20:07:00,74.1,72.9,29.83,South,184,0.0,0.0,96,0.02,,,0.10,VWS V14.01,2013-07-23 00:07:00,
2013-07-22 20:12:00,74.0,72.8,29.83,South,184,0.0,0.0,96,0.02,,,0.10,VWS V14.01,2013-07-23 00:12:00,
2013-07-22 20:17:00,74.0,72.8,29.83,South,184,0.0,0.0,96,0.02,,,0.10,VWS V14.01,2013-07-23 00:17:00,
2013-07-22 20:23:00,74.0,73.1,29.84,South,184,0.0,0.0,97,0.02,,,0.10,VWS V14.01,2013-07-23 00:23:00,
2013-07-22 20:28:00,73.9,73.0,29.84,South,184,0.0,0.0,97,0.02,,,0.10,VWS V14.01,2013-07-23 00:28:00,
2013-07-22 20:33:00,73.9,73.0,29.84,South,184,0.0,0.0,97,0.02,,,0.10,VWS V14.01,2013-07-23 00:33:00,
2013-07-22 20:38:00,73.9,73.0,29.84,South,184,0.0,0.0,97,0.02,,,0.10,VWS V14.01,2013-07-23 00:38:00,
2013-07-22 20:43:00,73.8,72.9,29.83,South,184,0.0,0.0,97,0.02,,,0.10,VWS V14.01,2013-07-23 00:43:00,
2013-07-22 20:48:00,73.8,72.9,29.84,South,184,0.0,0.0,97,0.02,,,0.10,VWS V14.01,2013-07-23 00:48:00,
2013-07-22 20:53:00,73.7,72.8,29.84,South,184,0.0,0.0,97,0.02,,,0.10,VWS V14.01,2013-07-23 00:53:00,
2013-07-22 20:58:00,73.6,72.7,29.84,WSW,243,0.0,0.0,97,0.02,,,0.10,VWS V14.01,2013-07-23 00:58:00,
2013-07-22 21:03:00,73.7,72.8,29.83,WSW,243,0.0,0.0,97,0.01,,,0.11,VWS V14.01,2013-07-23 01:03:00,
2013-07-22 21:08:00,73.6,72.7,29.84,WSW,243,0.0,0.0,97,0.01,,,0.11,VWS V14.01,2013-07-23 01:08:00,
2013-07-22 21:14:00,73.6,72.7,29.84,WSW,243,0.0,0.0,97,0.01,,,0.11,VWS V14.01,2013-07-23 01:14:00,
2013-07-22 21:19:00,73.6,72.7,29.83,WSW,243,0.0,0.0,97,0.01,,,0.11,VWS V14.01,2013-07-23 01:19:00,
2013-07-22 21:24:00,73.6,72.7,29.83,WSW,243,0.0,0.0,97,0.01,,,0.11,VWS V14.01,2013-07-23 01:24:00,
2013-07-22 21:29:00,73.6,73.0,29.83,WSW,243,0.0,0.0,98,0.02,,,0.12,VWS V14.01,2013-07-23 01:29:00,
2013-07-22 21:34:00,73.6,73.0,29.83,WSW,243,0.0,0.0,98,0.02,,,0.12,VWS V14.01,2013-07-23 01:34:00,
2013-07-22 21:39:00,73.5,72.9,29.83,WSW,243,0.0,0.0,98,0.02,,,0.12,VWS V14.01,2013-07-23 01:39:00,
2013-07-22 21:44:00,73.5,72.9,29.83,WSW,243,0.0,0.0,98,0.02,,,0.12,VWS V14.01,2013-07-23 01:44:00,
2013-07-22 21:49:00,73.4,72.8,29.83,WSW,243,0.0,0.0,98,0.02,,,0.12,VWS V14.01,2013-07-23 01:49:00,
2013-07-22 21:54:00,73.4,72.8,29.83,WSW,243,0.0,0.0,98,0.02,,,0.12,VWS V14.01,2013-07-23 01:54:00,
2013-07-22 21:59:00,73.4,72.8,29.83,WSW,243,0.0,0.0,98,0.02,,,0.12,VWS V14.01,2013-07-23 01:59:00,
2013-07-22 22:04:00,73.4,72.8,29.83,WSW,243,0.0,0.0,98,0.02,,,0.12,VWS V14.01,2013-07-23 02:04:00,
2013-07-22 22:10:00,73.4,72.8,29.83,WSW,243,0.0,0.0,98,0.02,,,0.12,VWS V14.01,2013-07-23 02:10:00,
2013-07-22 22:15:00,73.4,72.8,29.83,WSW,243,0.0,0.0,98,0.02,,,0.12,VWS V14.01,2013-07-23 02:15:00,
2013-07-22 22:20:00,73.4,72.8,29.83,East,84,0.0,0.0,98,0.02,,,0.12,VWS V14.01,2013-07-23 02:20:00,
2013-07-22 22:25:00,73.3,72.7,29.83,East,84,0.0,0.0,98,0.02,,,0.12,VWS V14.01,2013-07-23 02:25:00,
2013-07-22 22:30:00,73.3,72.7,29.82,East,84,0.0,0.0,98,0.02,,,0.12,VWS V14.01,2013-07-23 02:30:00,
2013-07-22 22:35:00,73.2,72.6,29.82,East,84,0.0,0.0,98,0.00,,,0.12,VWS V14.01,2013-07-23 02:35:00,
2013-07-22 22:40:00,73.3,72.7,29.82,East,84,0.0,0.0,98,0.00,,,0.12,VWS V14.01,2013-07-23 02:40:00,
2013-07-22 22:45:00,73.2,72.6,29.82,East,84,0.0,0.0,98,0.00,,,0.12,VWS V14.01,2013-07-23 02:45:00,
2013-07-22 22:47:00,73.2,72.6,29.82,East,84,0.0,0.0,98,0.00,,,0.12,VWS V14.01,2013-07-23 02:47:00,
2013-07-22 22:52:00,73.2,72.6,29.82,East,84,0.0,0.0,98,0.00,,,0.12,VWS V14.01,2013-07-23 02:52:00,
2013-07-22 22:57:00,73.2,72.6,29.82,East,84,0.0,0.0,98,0.00,,,0.12,VWS V14.01,2013-07-23 02:57:00,
2013-07-22 23:02:00,73.1,72.5,29.82,East,84,0.0,0.0,98,0.00,,,0.12,VWS V14.01,2013-07-23 03:02:00,
2013-07-22 23:07:00,73.0,72.4,29.82,East,84,0.0,0.0,98,0.00,,,0.12,VWS V14.01,2013-07-23 03:07:00,
2013-07-22 23:12:00,73.0,72.4,29.82,East,84,0.0,0.0,98,0.00,,,0.12,VWS V14.01,2013-07-23 03:12:00,
2013-07-22 23:17:00,72.9,72.3,29.82,East,84,0.0,0.0,98,0.01,,,0.13,VWS V14.01,2013-07-23 03:17:00,
2013-07-22 23:22:00,72.8,72.2,29.82,East,84,0.0,0.0,98,0.01,,,0.13,VWS V14.01,2013-07-23 03:22:00,
2013-07-22 23:27:00,72.8,72.2,29.82,ENE,63,0.0,0.0,98,0.01,,,0.13,VWS V14.01,2013-07-23 03:27:00,
2013-07-22 23:28:00,72.7,72.1,29.81,ENE,63,0.0,0.0,98,0.01,,,0.13,VWS V14.01,2013-07-23 03:28:00,
2013-07-22 23:33:00,72.7,72.1,29.81,ENE,63,0.0,0.0,98,0.01,,,0.13,VWS V14.01,2013-07-23 03:33:00,
2013-07-22 23:38:00,72.6,72.0,29.81,ENE,63,0.0,0.0,98,0.01,,,0.13,VWS V14.01,2013-07-23 03:38:00,
2013-07-22 23:43:00,72.6,72.0,29.81,ENE,63,0.0,0.0,98,0.01,,,0.13,VWS V14.01,2013-07-23 03:43:00,
2013-07-22 23:48:00,72.6,72.0,29.81,ENE,63,0.0,0.0,98,0.01,,,0.13,VWS V14.01,2013-07-23 03:48:00,
2013-07-22 23:53:00,72.5,71.9,29.81,ENE,57,0.0,0.0,98,0.02,,,0.14,VWS V14.01,2013-07-23 03:53:00,
2013-07-22 23:58:00,72.4,71.8,29.81,ENE,67,0.0,0.0,98,0.02,,,0.14,VWS V14.01,2013-07-23 03:58:00,